SBI6431 UIII-UNKL

Flight info

Callsign SBI6431
Flight time N/A
Altitude 30000
Route BOGRA5D BOGRA A815 TUTEK A91 SUKOR W176 TISBU/K0746F240 A311 LALOM LALOM2S
Aircraft E170/M-SDE3GILORVW/S

Departure

Time 2026-04-29 14:10
Airport Irkutsk International Airport (UIII)

Arrival

Time N/A
Airport Krasnoyarsk International Airport (UNKL)
Time Latitude Longitude Altitude Speed Heading
2026-04-29 13:27 52.27223 104.35532 1627 ft 0 kts 86°
2026-04-29 13:34 52.27223 104.35531 1627 ft 0 kts 86°
2026-04-29 13:54 52.27223 104.35530 1627 ft 0 kts 86°
2026-04-29 14:02 52.27224 104.35546 1627 ft 5 kts 85°
2026-04-29 14:02 52.27193 104.35606 1629 ft 11 kts 172°
2026-04-29 14:02 52.27155 104.35629 1630 ft 5 kts 112°
2026-04-29 14:02 52.27151 104.35728 1627 ft 13 kts 84°
2026-04-29 14:03 52.27176 104.35901 1629 ft 18 kts 86°
2026-04-29 14:03 52.27184 104.36144 1627 ft 24 kts 87°
2026-04-29 14:03 52.27146 104.36435 1627 ft 29 kts 111°
2026-04-29 14:03 52.27075 104.36747 1627 ft 30 kts 111°
2026-04-29 14:04 52.27000 104.37076 1627 ft 31 kts 109°
2026-04-29 14:04 52.26968 104.37403 1627 ft 29 kts 113°
2026-04-29 14:04 52.26891 104.37700 1631 ft 28 kts 113°
2026-04-29 14:04 52.26811 104.37989 1635 ft 28 kts 112°
2026-04-29 14:05 52.26736 104.38276 1639 ft 27 kts 114°
2026-04-29 14:05 52.26659 104.38558 1643 ft 27 kts 109°
2026-04-29 14:05 52.26587 104.38834 1647 ft 26 kts 117°
2026-04-29 14:05 52.26518 104.39097 1650 ft 25 kts 113°
2026-04-29 14:06 52.26449 104.39356 1654 ft 25 kts 114°
2026-04-29 14:06 52.26380 104.39613 1655 ft 25 kts 114°
2026-04-29 14:06 52.26311 104.39868 1660 ft 25 kts 112°
2026-04-29 14:06 52.26240 104.40145 1664 ft 28 kts 113°
2026-04-29 14:07 52.26156 104.40458 1670 ft 32 kts 114°
2026-04-29 14:07 52.26068 104.40789 1673 ft 31 kts 114°
2026-04-29 14:07 52.25998 104.41051 1676 ft 7 kts 103°
2026-04-29 14:07 52.25999 104.41136 1677 ft 9 kts 64°
2026-04-29 14:08 52.26061 104.41206 1681 ft 13 kts 24°
2026-04-29 14:08 52.26143 104.41264 1681 ft 13 kts 24°
2026-04-29 14:08 52.26229 104.41269 1678 ft 14 kts 314°
2026-04-29 14:08 52.26277 104.41110 1674 ft 18 kts 292°
2026-04-29 14:09 52.26354 104.40813 1674 ft 50 kts 294°
2026-04-29 14:09 52.26570 104.40005 1663 ft 104 kts 295°
2026-04-29 14:09 52.26923 104.38685 1644 ft 147 kts 293°
2026-04-29 14:09 52.27344 104.37087 1999 ft 155 kts 293°
2026-04-29 14:10 52.27811 104.35376 2639 ft 164 kts 295°
2026-04-29 14:10 52.28252 104.33689 3651 ft 165 kts 297°
2026-04-29 14:10 52.28726 104.31927 4406 ft 174 kts 300°
2026-04-29 14:10 52.29601 104.30544 5087 ft 183 kts 331°
2026-04-29 14:11 52.30749 104.29573 5784 ft 193 kts 333°
2026-04-29 14:11 52.31979 104.28651 6625 ft 195 kts 337°
2026-04-29 14:11 52.33254 104.27844 7423 ft 197 kts 338°
2026-04-29 14:11 52.34545 104.27071 8191 ft 199 kts 339°
2026-04-29 14:12 52.35856 104.26298 8953 ft 201 kts 339°
2026-04-29 14:12 52.37178 104.25515 9697 ft 204 kts 339°
2026-04-29 14:12 52.38517 104.24721 10407 ft 206 kts 339°
2026-04-29 14:12 52.39876 104.23909 11027 ft 211 kts 339°
2026-04-29 14:13 52.41277 104.23076 11658 ft 215 kts 340°
2026-04-29 14:13 52.42699 104.22230 12318 ft 222 kts 340°
2026-04-29 14:13 52.44191 104.21341 12848 ft 241 kts 340°
2026-04-29 14:13 52.45845 104.20354 13369 ft 263 kts 340°
2026-04-29 14:14 52.47604 104.19303 14012 ft 280 kts 340°
2026-04-29 14:14 52.49490 104.18177 14649 ft 296 kts 340°
2026-04-29 14:14 52.51463 104.16996 15356 ft 307 kts 340°
2026-04-29 14:14 52.53487 104.15785 16241 ft 312 kts 340°
2026-04-29 14:15 52.55548 104.14549 17112 ft 318 kts 340°
2026-04-29 14:15 52.57640 104.13293 17967 ft 323 kts 340°
2026-04-29 14:15 52.59769 104.12014 18761 ft 328 kts 340°
2026-04-29 14:15 52.61927 104.10717 19495 ft 332 kts 340°
2026-04-29 14:16 52.64111 104.09402 20231 ft 336 kts 340°
2026-04-29 14:16 52.66320 104.08073 20987 ft 339 kts 340°
2026-04-29 14:16 52.68541 104.06735 21760 ft 341 kts 339°
2026-04-29 14:16 52.70782 104.05377 22449 ft 345 kts 339°
2026-04-29 14:17 52.73047 104.04008 23126 ft 348 kts 339°
2026-04-29 14:17 52.75338 104.02621 23786 ft 352 kts 339°
2026-04-29 14:17 52.77648 104.01223 24339 ft 355 kts 339°
2026-04-29 14:17 52.79983 103.99806 24864 ft 358 kts 339°
2026-04-29 14:18 52.82333 103.98378 25380 ft 362 kts 339°
2026-04-29 14:18 52.84704 103.96937 25885 ft 365 kts 339°
2026-04-29 14:18 52.87095 103.95482 26381 ft 368 kts 339°
2026-04-29 14:18 52.89507 103.94012 26859 ft 371 kts 339°
2026-04-29 14:19 52.91936 103.92529 27327 ft 374 kts 339°
2026-04-29 14:19 52.94353 103.91052 27862 ft 374 kts 339°
2026-04-29 14:19 52.96834 103.89536 28377 ft 376 kts 339°
2026-04-29 14:19 52.99298 103.88026 28813 ft 379 kts 339°
2026-04-29 14:20 53.01781 103.86504 29238 ft 382 kts 339°
2026-04-29 14:20 53.04278 103.84975 29573 ft 382 kts 340°
2026-04-29 14:20 53.06788 103.83432 29711 ft 385 kts 340°
2026-04-29 14:20 53.09298 103.81880 29902 ft 387 kts 340°
2026-04-29 14:21 53.14398 103.78738 30023 ft 396 kts 338°
2026-04-29 14:21 53.19486 103.74887 30014 ft 406 kts 335°
2026-04-29 14:22 53.24630 103.70865 30007 ft 415 kts 335°
2026-04-29 14:22 53.29909 103.66724 30030 ft 422 kts 335°
2026-04-29 14:23 53.32572 103.64632 30154 ft 424 kts 335°